Date String (YYYY-MM-DD hh:mm:ss) UTC,Instrument flags,Ambient pressure (hPa),Sample flow (lpm),Bypass flow (lpm),Sample temperature (°C),Ambient temperature (°C),ASC tube jacket temperature (°C),LED temperature (°C),Box temperature (°C),Sample RH (%),Span deviation,Mass concentration (μg/m³),Mass concentration (μg/m³),Mass concentration (μg/m³)
DateTimeUTC,F1_M11,P_M11,Q1_M11,Q2_M11,T1_M11,T2_M11,T3_M11,T4_M11,T5_M11,U1_M11,ZSPAN_M11,X0_M11,X2_M11,X1_M11
2022-07-02 10:00:00,,0828.0,5.00,0.00,30.1,29.1,00.0,38.9,32.0,27.8,0000.0,0009.27,0004.02,0003.23
2022-07-02 10:01:00,,0827.9,5.00,0.00,30.1,29.1,00.0,38.9,32.1,27.7,0000.0,0009.47,0004.06,0003.24
2022-07-02 10:02:00,,0827.9,5.00,0.00,30.2,29.2,00.0,38.9,32.1,27.7,0000.0,0009.69,0004.06,0003.26
2022-07-02 10:03:00,,0827.9,5.01,0.00,30.2,29.2,00.0,38.9,32.1,27.6,0000.0,0009.78,0004.11,0003.27
2022-07-02 10:04:00,,0827.9,5.00,0.00,30.2,29.2,00.0,39.0,32.1,27.6,0000.0,0009.82,0004.17,0003.28
2022-07-02 10:05:00,,0828.0,5.00,0.00,30.2,29.2,00.0,39.0,32.1,27.5,0000.0,0009.05,0004.15,0003.29
2022-07-02 10:06:00,,0827.9,5.01,0.00,30.2,29.2,00.0,39.0,32.1,27.4,0000.0,0009.11,0004.18,0003.30
2022-07-02 10:07:00,,0828.0,5.00,0.00,30.2,29.2,00.0,39.0,32.1,27.5,0000.0,0008.52,0004.16,0003.30
2022-07-02 10:08:00,,0828.1,5.00,0.00,30.2,29.2,00.0,39.0,32.1,27.4,0000.0,0008.49,0004.16,0003.29
2022-07-02 10:09:00,,0828.0,5.00,0.00,30.2,29.3,00.0,39.0,32.1,27.4,0000.0,0008.51,0004.16,0003.30
2022-07-02 10:10:00,,0828.0,5.00,0.00,30.3,29.3,00.0,39.0,32.1,27.3,0000.0,0008.50,0004.17,0003.31
2022-07-02 10:11:00,,0828.0,5.00,0.00,30.3,29.3,00.0,39.0,32.2,27.2,0000.0,0008.64,0004.21,0003.34
2022-07-02 10:12:00,,0828.0,5.00,0.00,30.3,29.3,00.0,39.1,32.2,27.1,0000.0,0008.58,0004.22,0003.35
2022-07-02 10:13:00,,0828.0,4.99,0.00,30.3,29.3,00.0,39.1,32.2,27.0,0000.0,0008.30,0004.23,0003.37
2022-07-02 10:14:00,,0828.0,4.99,0.00,30.3,29.3,00.0,39.1,32.2,26.9,0000.0,0008.34,0004.24,0003.39
2022-07-02 10:15:00,,0828.0,5.00,0.00,30.3,29.3,00.0,39.1,32.2,26.9,0000.0,0008.45,0004.27,0003.41
2022-07-02 10:16:00,,0828.0,5.01,0.00,30.3,29.3,00.0,39.1,32.2,26.9,0000.0,0008.74,0004.34,0003.43
2022-07-02 10:17:00,,0828.0,4.99,0.00,30.3,29.3,00.0,39.1,32.2,26.8,0000.0,0008.75,0004.37,0003.44
2022-07-02 10:18:00,,0828.1,5.00,0.00,30.3,29.3,00.0,39.1,32.2,26.8,0000.0,0009.24,0004.42,0003.46
2022-07-02 10:19:00,,0828.1,5.00,0.00,30.3,29.3,00.0,39.1,32.2,26.8,0000.0,0009.66,0004.44,0003.48
2022-07-02 10:20:00,,0828.1,5.00,0.00,30.3,29.3,00.0,39.1,32.2,26.7,0000.0,0009.78,0004.45,0003.50
2022-07-02 10:21:00,,0828.1,5.00,0.00,30.3,29.3,00.0,39.1,32.2,26.5,0000.0,0009.96,0004.50,0003.51
2022-07-02 10:22:00,,0828.1,5.00,0.00,30.3,29.3,00.0,39.1,32.2,26.2,0000.0,0009.97,0004.52,0003.52
2022-07-02 10:23:00,,0828.1,5.01,0.00,30.4,29.3,00.0,39.2,32.2,26.1,0000.0,0010.06,0004.55,0003.54
2022-07-02 10:24:00,,0828.1,5.00,0.00,30.4,29.3,00.0,39.2,32.2,26.1,0000.0,0010.57,0004.60,0003.55
2022-07-02 10:25:00,,0828.1,5.00,0.00,30.4,29.3,00.0,39.2,32.2,26.2,0000.0,0010.66,0004.62,0003.56
2022-07-02 10:26:00,,0828.1,5.00,0.00,30.4,29.3,00.0,39.2,32.2,26.2,0000.0,0010.59,0004.63,0003.57
2022-07-02 10:27:00,,0828.1,5.00,0.00,30.3,28.7,00.0,39.1,32.1,26.3,0000.0,0010.37,0004.59,0003.56
2022-07-02 10:28:00,,0828.1,5.00,0.00,30.3,27.9,00.0,39.0,32.0,26.2,0000.0,0010.29,0004.56,0003.56
2022-07-02 10:29:00,,0828.1,4.99,0.00,30.2,27.6,00.0,39.0,31.8,26.4,0000.0,0009.88,0004.52,0003.55
2022-07-02 10:30:00,,0828.1,5.00,0.00,30.1,27.5,00.0,39.0,31.7,26.5,0000.0,0009.92,0004.52,0003.53
2022-07-02 10:31:00,,0828.1,5.01,0.00,30.0,27.6,00.0,39.0,31.7,26.8,0000.0,0009.85,0004.51,0003.52
2022-07-02 10:32:00,,0828.2,5.00,0.00,30.0,27.7,00.0,38.9,31.6,26.8,0000.0,0009.79,0004.49,0003.51
2022-07-02 10:33:00,,0828.1,4.99,0.00,29.9,27.9,00.0,38.9,31.6,27.0,0000.0,0009.80,0004.50,0003.51
2022-07-02 10:34:00,,0828.1,5.00,0.00,29.9,28.0,00.0,38.9,31.7,26.9,0000.0,0009.89,0004.51,0003.50
2022-07-02 10:35:00,,0828.1,5.01,0.00,29.9,28.1,00.0,38.8,31.7,26.6,0000.0,0009.77,0004.52,0003.50
2022-07-02 10:36:00,,0828.1,5.00,0.00,29.9,28.2,00.0,38.8,31.7,26.5,0000.0,0009.84,0004.58,0003.52
2022-07-02 10:37:00,,0828.1,5.00,0.00,29.9,28.3,00.0,38.8,31.6,26.4,0000.0,0009.97,0004.62,0003.53
2022-07-02 10:38:00,,0828.1,5.00,0.00,29.8,28.3,00.0,38.8,31.6,26.5,0000.0,0010.05,0004.65,0003.56
2022-07-02 10:39:00,,0828.1,4.99,0.00,29.8,28.4,00.0,38.8,31.6,26.5,0000.0,0010.12,0004.70,0003.59
2022-07-02 10:40:00,,0828.1,5.00,0.00,29.8,28.4,00.0,38.8,31.6,26.6,0000.0,0010.30,0004.77,0003.62
2022-07-02 10:41:00,,0828.1,5.00,0.00,29.8,28.5,00.0,38.8,31.6,26.6,0000.0,0009.89,0004.82,0003.65
2022-07-02 10:42:00,,0828.1,5.00,0.00,29.8,28.5,00.0,38.7,31.6,26.6,0000.0,0009.68,0004.86,0003.67
2022-07-02 10:43:00,,0828.2,5.00,0.00,29.8,28.5,00.0,38.7,31.6,26.6,0000.0,0009.65,0004.87,0003.69
2022-07-02 10:44:00,,0828.1,5.00,0.00,29.8,28.6,00.0,38.7,31.6,26.7,0000.0,0009.78,0004.88,0003.71
2022-07-02 10:45:00,,0828.1,5.00,0.00,29.8,28.6,00.0,38.7,31.7,26.6,0000.0,0009.88,0004.86,0003.74
2022-07-02 10:46:00,,0828.1,5.00,0.00,29.8,28.6,00.0,38.7,31.7,26.5,0000.0,0010.31,0004.88,0003.76
2022-07-02 10:47:00,,0828.1,5.00,0.00,29.8,28.6,00.0,38.7,31.7,26.5,0000.0,0010.28,0004.89,0003.78
2022-07-02 10:48:00,,0828.1,5.00,0.00,29.8,28.6,00.0,38.7,31.7,26.5,0000.0,0010.20,0004.89,0003.79
2022-07-02 10:49:00,,0828.1,5.01,0.00,29.8,28.6,00.0,38.7,31.7,26.6,0000.0,0010.17,0004.88,0003.79
2022-07-02 10:50:00,,0828.1,5.00,0.00,29.8,28.7,00.0,38.7,31.7,26.6,0000.0,0010.24,0004.91,0003.80
2022-07-02 10:51:00,,0828.1,5.00,0.00,29.8,28.7,00.0,38.7,31.7,26.5,0000.0,0010.23,0004.89,0003.81
2022-07-02 10:52:00,,0828.1,5.00,0.00,29.8,28.7,00.0,38.7,31.7,26.6,0000.0,0010.39,0004.90,0003.80
2022-07-02 10:53:00,,0828.1,5.00,0.00,29.8,28.7,00.0,38.7,31.7,26.6,0000.0,0010.64,0004.90,0003.81
2022-07-02 10:54:00,,0828.2,5.00,0.00,29.8,28.7,00.0,38.7,31.7,26.5,0000.0,0010.69,0004.90,0003.81
2022-07-02 10:55:00,,0828.1,5.00,0.00,29.8,28.7,00.0,38.7,31.7,26.4,0000.0,0010.51,0004.89,0003.81
2022-07-02 10:56:00,,0828.1,4.99,0.00,29.8,28.7,00.0,38.7,31.7,26.3,0000.0,0010.28,0004.88,0003.80
2022-07-02 10:57:00,,0828.1,5.00,0.00,29.8,28.7,00.0,38.7,31.7,26.3,0000.0,0009.89,0004.88,0003.78
2022-07-02 10:58:00,,0828.1,5.01,0.00,29.8,28.7,00.0,38.7,31.7,26.2,0000.0,0009.93,0004.86,0003.77
2022-07-02 10:59:00,,0828.1,5.00,0.00,29.8,28.7,00.0,38.7,31.7,26.2,0000.0,0009.78,0004.79,0003.76
